Home   Weather   Kosrae Island   Past weeks
Flag for Micronesia

Past Weather in Kosrae Island, Micronesia — Yesterday and Last 2 Weeks

Now
76 °F

Partly cloudy.


Feels Like: 76 °F
Forecast: 86 / 81 °F
Wind: 3 mph from South

Location: Pohnpei

Current Time: Jan 19, 2020 at 2:21:38 am

Latest Report: Jan 19, 2020 at 12:54 am


Visibility: 15 mi

Pressure: 29.82 "Hg

Humidity: 91%

Dew Point: 73 °F

Location of Kosrae IslandLocation

Past Weather in Kosrae Island — Graph

°F

Kosrae Island Temperature Yesterday

Maximum temperature yesterday: 88 °F (at 12:55 pm)
Minimum temperature yesterday: 74 °F (at 6:52 am)
Average temperature yesterday: 81 °F

High & Low Weather Summary for the Past Weeks

 TemperatureHumidityPressure
High89 °F (Jan 6, 11:52 am)98% (Jan 13, 11:50 am)29.88 "Hg (Jan 13, 11:50 am)
Low74 °F (Jan 17, 2:52 am)66% (Jan 11, 2:52 pm)29.67 "Hg (Jan 11, 3:51 pm)
Average82 °F83%29.77 "Hg
* Reported Jan 3 11:52 pm — Jan 18 11:50 pm, Kosrae Island. Weather by CustomWeather, © 2020

Note: Actual official high and low records may vary slightly from our data, if they occured in-between our weather recording intervals... More about our weather records

Kosrae Island Weather History for the Previous 24 Hours

Scroll right to see more
 ConditionsComfort  
Time TempWeatherWind HumidityBarometerVisibility
11:50 pm
Sat, Jan 18
76 °FPartly cloudy.3 mph91%29.83 "Hg15 mi
10:51 pm76 °FPassing clouds.3 mph91%29.83 "Hg15 mi
9:54 pm77 °FPassing clouds.3 mph89%29.83 "Hg15 mi
8:53 pm78 °FPassing clouds.No wind90%29.82 "Hg15 mi
7:53 pm79 °FPassing clouds.2 mph92%29.80 "Hg15 mi
6:52 pm81 °FPassing clouds.No wind86%29.78 "Hg15 mi
5:54 pm83 °FMore clouds than sun.3 mph82%29.75 "Hg15 mi
4:53 pm84 °FMore clouds than sun.5 mph77%29.73 "Hg15 mi
3:51 pm85 °FMore clouds than sun.6 mph74%29.72 "Hg15 mi
2:55 pm85 °FMore clouds than sun.5 mph75%29.72 "Hg15 mi
1:53 pm86 °FOvercast.6 mph72%29.75 "Hg15 mi
12:55 pm88 °FMore clouds than sun.5 mph67%29.77 "Hg15 mi
11:52 am88 °FMore clouds than sun.6 mph70%29.80 "Hg15 mi
10:53 am85 °FMore clouds than sun.6 mph76%29.82 "Hg15 mi
8:55 am82 °FMore clouds than sun.3 mph84%29.83 "Hg15 mi
7:52 am76 °FOvercast.5 mph94%29.80 "Hg15 mi
6:52 am74 °FMore clouds than sun.5 mph96%29.78 "Hg15 mi
Weather by CustomWeather, © 2020

See weather overview

Advertising